Regional Weather Roundup
Issued by NWS

Home | Current Version | Previous Version | Text Only | Print | Product List | Glossary On
Versions: 1 2 3 4 5 6 7 8 9 10 11 12 13 14 15 16 17 18 19 20 21 22 23 24 25 26 27 28 29 30 31 32 33 34 35 36 37 38 39 40 41 42 43 44 45 46 47 48 49 50
000
ASUS43 KFSD 312110
RWRSD

WEATHER ROUNDUP FOR SOUTH DAKOTA
NATIONAL WEATHER SERVICE SIOUX FALLS SD
400 PM CDT FRI OCT 31 2014

NOTE: "FAIR" INDICATES FEW OR NO CLOUDS BELOW 12,000 FEET WITH NO
SIGNIFICANT WEATHER AND/OR OBSTRUCTIONS TO VISIBILITY.


SDZ001>005-009-010-012>017-312200-
NORTHWEST AND NORTH CENTRAL SOUTH DAKOTA

CITY           SKY/WX    TMP DP  RH WIND       PRES   REMARKS
BUFFALO          N/A     47  29  49 SE30G45   29.95F
FAITH            N/A     43  15  32 SE30G38   30.15F
MOBRIDGE       MOSUNNY   43  12  28 S26G33    30.29F
$$

SDZ012>016-024>037-041>051-057-063-072>074-312200-
SOUTHWEST AND SOUTH CENTRAL SOUTH DAKOTA

CITY           SKY/WX    TMP DP  RH WIND       PRES   REMARKS
RAPID CTY ARPT MOSUNNY   50  30  46 S26G33    30.10F
PIERRE         PTSUNNY   43  13  29 SE24G31   30.33F
CUSTER         MOSUNNY   44  29  55 S12G18    30.10F
ELLSWORTH AFB  MOSUNNY   51  30  45 S28G33    30.08F
PHILIP         SUNNY     51  17  26 SE23G30   30.21F
PINE RIDGE     SUNNY     52  27  38 S17G30    30.16F
SPEARFISH      FAIR      55  37  50 NW6       29.97F
WINNER         FAIR      45  11  25 SE21G26   30.36F
$$

SDZ004>011-016>023-039-040-312200-
NORTHEAST SOUTH DAKOTA

CITY           SKY/WX    TMP DP  RH WIND       PRES   REMARKS
ABERDEEN       SUNNY     40  16  37 S16       30.43F
WATERTOWN      SUNNY     38  18  44 SE7       30.44F
SISSETON         N/A     38  21  50 S8        30.46F
$$

SDZ017-020-022-023-036>040-048>070-312200-
SOUTHEAST SOUTH DAKOTA

CITY           SKY/WX    TMP DP  RH WIND       PRES   REMARKS
SIOUX FALLS    MOSUNNY   41  16  36 CALM      30.47F
HURON          SUNNY     40  16  37 S12       30.45F
CHAMBERLAIN    PTSUNNY   39  15  36 SE15      30.40F
MITCHELL       SUNNY     40  17  39 SE10      30.47F
YANKTON        SUNNY     39  16  38 S6        30.48F
$$

ABBREVIATIONS USED IN REMARKS
   TC - TEMPERATURE IN CELSIUS
  WCI - WIND CHILL INDEX
   HX - HEAT INDEX
  VSB - VISIBILITY




USA.gov is the U.S. government's official web portal to all federal, state and local government web resources and services.